THY3DJ DAOO-LTFM

Flight info

Callsign THY3DJ
Flight time N/A
Altitude 33000
Route SID51 CHE UG26 ALR UA411 BNA UA31 BABOR UZ888 DIMAO UW254 TUC DCT CBN UL869 TUPAL/N0440F340 DCT MEGAN DCT GOKEL/N0433F330 DCT VELBA P127 AYTEK
Aircraft B739/M-SDE2E3FGHIRWXY/LB1

Departure

Time 2026-05-06 14:52
Airport Oran Es-Sénia (Ahmed Ben Bella) International Airport (DAOO)

Arrival

Time N/A
Airport İstanbul Airport (LTFM)
Time Latitude Longitude Altitude Speed Heading
2026-05-06 14:40 35.62087 -0.60718 303 ft 0 kts 204°
2026-05-06 14:43 35.62096 -0.60713 302 ft 4 kts 185°
2026-05-06 14:43 35.62104 -0.60716 303 ft 4 kts 92°
2026-05-06 14:43 35.62106 -0.60746 302 ft 2 kts 101°
2026-05-06 14:44 35.62106 -0.60747 302 ft 0 kts 101°
2026-05-06 14:46 35.62108 -0.60744 302 ft 1 kts 73°
2026-05-06 14:46 35.62115 -0.60742 302 ft 2 kts 18°
2026-05-06 14:46 35.62139 -0.60745 305 ft 5 kts 353°
2026-05-06 14:47 35.62178 -0.60720 304 ft 8 kts 58°
2026-05-06 14:47 35.62212 -0.60674 303 ft 8 kts
2026-05-06 14:47 35.62262 -0.60687 303 ft 7 kts
2026-05-06 14:47 35.62298 -0.60645 303 ft 7 kts 61°
2026-05-06 14:48 35.62321 -0.60581 304 ft 9 kts 65°
2026-05-06 14:48 35.62347 -0.60511 304 ft 9 kts 66°
2026-05-06 14:48 35.62372 -0.60442 303 ft 9 kts 65°
2026-05-06 14:48 35.62408 -0.60387 303 ft 8 kts 33°
2026-05-06 14:49 35.62461 -0.60357 305 ft 8 kts
2026-05-06 14:49 35.62521 -0.60360 306 ft 9 kts 350°
2026-05-06 14:49 35.62580 -0.60387 304 ft 10 kts 337°
2026-05-06 14:49 35.62645 -0.60421 304 ft 10 kts 337°
2026-05-06 14:50 35.62709 -0.60454 305 ft 10 kts 337°
2026-05-06 14:50 35.62772 -0.60486 305 ft 10 kts 338°
2026-05-06 14:50 35.62834 -0.60518 303 ft 10 kts 334°
2026-05-06 14:50 35.62885 -0.60574 303 ft 10 kts 296°
2026-05-06 14:51 35.62883 -0.60657 303 ft 10 kts 252°
2026-05-06 14:51 35.62841 -0.60781 304 ft 36 kts 247°
2026-05-06 14:51 35.62654 -0.61325 304 ft 101 kts 247°
2026-05-06 14:51 35.62306 -0.62343 302 ft 154 kts 247°
2026-05-06 14:52 35.61840 -0.63717 389 ft 188 kts 250°
2026-05-06 14:52 35.61271 -0.65216 716 ft 208 kts 245°
2026-05-06 14:52 35.60409 -0.66668 1410 ft 200 kts 221°
2026-05-06 14:52 35.59271 -0.67607 2224 ft 196 kts 225°
2026-05-06 14:53 35.58435 -0.68984 2456 ft 211 kts 238°
2026-05-06 14:53 35.57551 -0.70528 2742 ft 227 kts 236°
2026-05-06 14:53 35.56599 -0.72121 3290 ft 228 kts 235°
2026-05-06 14:53 35.55683 -0.73726 3887 ft 232 kts 237°
2026-05-06 14:54 35.54750 -0.75379 4448 ft 238 kts 235°
2026-05-06 14:54 35.53776 -0.77029 5206 ft 237 kts 237°
2026-05-06 14:54 35.52855 -0.78710 5853 ft 242 kts 240°
2026-05-06 14:54 35.52374 -0.80638 6581 ft 239 kts 270°
2026-05-06 14:55 35.52734 -0.82645 7141 ft 246 kts 295°
2026-05-06 14:55 35.53800 -0.84300 7761 ft 252 kts 320°
2026-05-06 14:55 35.55396 -0.85225 8379 ft 261 kts 348°
2026-05-06 14:55 35.57229 -0.85067 8854 ft 276 kts 22°
2026-05-06 14:56 35.58786 -0.83692 9518 ft 279 kts 45°
2026-05-06 14:56 35.59812 -0.81672 10100 ft 285 kts 75°
2026-05-06 14:56 35.60119 -0.79195 10309 ft 305 kts 85°
2026-05-06 14:56 35.60292 -0.76512 10472 ft 325 kts 85°
2026-05-06 14:57 35.60503 -0.73658 10623 ft 346 kts 84°
2026-05-06 14:57 35.60767 -0.70661 10989 ft 357 kts 84°
2026-05-06 14:57 35.61053 -0.67640 11535 ft 363 kts 84°
2026-05-06 14:57 35.61460 -0.64567 12119 ft 367 kts 73°
2026-05-06 14:58 35.62382 -0.61631 12717 ft 370 kts 66°
2026-05-06 14:58 35.63427 -0.58709 13277 ft 376 kts 65°
2026-05-06 14:58 35.64490 -0.55740 13821 ft 381 kts 66°
2026-05-06 14:58 35.65540 -0.52739 14364 ft 384 kts 66°
2026-05-06 14:59 35.66581 -0.49696 14947 ft 387 kts 67°
2026-05-06 14:59 35.67619 -0.46623 15503 ft 391 kts 67°
2026-05-06 14:59 35.68646 -0.43559 16016 ft 394 kts 68°
2026-05-06 14:59 35.69696 -0.40421 16524 ft 398 kts 68°
2026-05-06 15:00 35.70747 -0.37253 17048 ft 402 kts 70°
2026-05-06 15:00 35.71317 -0.33886 17490 ft 404 kts 92°
2026-05-06 15:00 35.71058 -0.30456 18046 ft 403 kts 101°
2026-05-06 15:00 35.70651 -0.27028 18512 ft 406 kts 101°
2026-05-06 15:01 35.70227 -0.23571 18942 ft 410 kts 101°
2026-05-06 15:01 35.69805 -0.20093 19410 ft 412 kts 101°
2026-05-06 15:01 35.69390 -0.16591 19864 ft 415 kts 101°
2026-05-06 15:01 35.68980 -0.13055 20324 ft 418 kts 101°
2026-05-06 15:02 35.68578 -0.09549 20763 ft 420 kts 100°
2026-05-06 15:02 35.68170 -0.05974 21205 ft 423 kts 100°
2026-05-06 15:02 35.67762 -0.02388 21638 ft 426 kts 100°
2026-05-06 15:02 35.67349 0.01235 22063 ft 429 kts 101°
2026-05-06 15:03 35.66933 0.04873 22500 ft 431 kts 101°
2026-05-06 15:03 35.66512 0.08542 22944 ft 434 kts 101°
2026-05-06 15:03 35.66088 0.12227 23378 ft 436 kts 101°
2026-05-06 15:03 35.65659 0.15940 23749 ft 439 kts 101°
2026-05-06 15:04 35.65228 0.19670 24067 ft 442 kts 101°
2026-05-06 15:04 35.64792 0.23427 24391 ft 446 kts 101°
2026-05-06 15:04 35.64352 0.27210 24724 ft 449 kts 100°
2026-05-06 15:04 35.64316 0.31023 24993 ft 457 kts 81°
2026-05-06 15:05 35.65250 0.34767 25307 ft 460 kts 62°
2026-05-06 15:05 35.66900 0.38137 25657 ft 461 kts 56°
2026-05-06 15:05 35.68676 0.41453 25849 ft 467 kts 55°
2026-05-06 15:05 35.70499 0.44808 26102 ft 471 kts 55°
2026-05-06 15:06 35.72321 0.48173 26419 ft 474 kts 55°
2026-05-06 15:06 35.74140 0.51565 26739 ft 476 kts 55°
2026-05-06 15:06 35.75958 0.54983 27107 ft 477 kts 56°
2026-05-06 15:06 35.77727 0.58424 27613 ft 475 kts 56°
2026-05-06 15:07 35.79487 0.61874 27932 ft 477 kts 57°
2026-05-06 15:07 35.81267 0.65271 28168 ft 480 kts 56°
2026-05-06 15:07 35.83107 0.68732 28440 ft 483 kts 56°
2026-05-06 15:07 35.84948 0.72206 28742 ft 485 kts 56°
2026-05-06 15:08 35.86789 0.75702 29047 ft 487 kts 56°
2026-05-06 15:08 35.88640 0.79224 29179 ft 493 kts 57°
2026-05-06 15:08 35.90377 0.82918 29272 ft 499 kts 62°
2026-05-06 15:08 35.92095 0.86634 29603 ft 498 kts 53°
2026-05-06 15:09 35.94127 0.90094 29966 ft 498 kts 51°
2026-05-06 15:09 35.96155 0.93564 30222 ft 499 kts 53°
2026-05-06 15:09 35.98068 0.97100 30403 ft 503 kts 55°
2026-05-06 15:09 35.99955 1.00760 30603 ft 505 kts 56°
2026-05-06 15:10 36.01826 1.04462 30854 ft 507 kts 56°
2026-05-06 15:10 36.03697 1.08173 31082 ft 508 kts 56°
2026-05-06 15:10 36.05579 1.11886 31275 ft 510 kts 56°
2026-05-06 15:10 36.07472 1.15607 31462 ft 513 kts 57°
2026-05-06 15:11 36.09204 1.19441 31478 ft 520 kts 62°
2026-05-06 15:11 36.13185 1.26991 31674 ft 524 kts 50°
2026-05-06 15:11 36.15342 1.30645 31944 ft 525 kts 52°
2026-05-06 15:12 36.17372 1.34421 32148 ft 528 kts 55°
2026-05-06 15:12 36.19326 1.38288 32307 ft 531 kts 56°
2026-05-06 15:12 36.21229 1.42144 32487 ft 533 kts 56°
2026-05-06 15:12 36.23193 1.46122 32691 ft 534 kts 56°
2026-05-06 15:13 36.25133 1.49929 32947 ft 523 kts 58°
2026-05-06 15:13 36.26969 1.53768 32789 ft 513 kts 55°
2026-05-06 15:13 36.28887 1.57454 32954 ft 509 kts 54°
2026-05-06 15:14 36.32738 1.64919 32920 ft 517 kts 55°
2026-05-06 15:14 36.36598 1.72558 32929 ft 524 kts 56°
2026-05-06 15:15 36.40468 1.80237 32910 ft 524 kts 56°
2026-05-06 15:15 36.43684 1.86610 32905 ft 524 kts 56°
2026-05-06 15:16 36.48306 1.95435 32940 ft 525 kts 59°
2026-05-06 15:16 36.49490 1.99722 32724 ft 523 kts 78°
2026-05-06 15:16 36.50215 2.02620 32846 ft 519 kts 63°
2026-05-06 15:16 36.52262 2.06238 32885 ft 508 kts 38°
2026-05-06 15:17 36.54858 2.09199 32923 ft 511 kts 42°
2026-05-06 15:17 36.57058 2.12644 32945 ft 518 kts 54°
2026-05-06 15:17 36.58903 2.16528 32885 ft 524 kts 66°
2026-05-06 15:17 36.60109 2.20818 32951 ft 524 kts 77°
2026-05-06 15:18 36.60818 2.25274 32904 ft 523 kts 86°
2026-05-06 15:18 36.61427 2.34250 32867 ft 520 kts 90°
2026-05-06 15:19 36.62151 2.43246 32934 ft 520 kts 91°
2026-05-06 15:19 36.62989 2.52221 32942 ft 528 kts 84°
2026-05-06 15:20 36.63956 2.61331 32920 ft 530 kts 86°
2026-05-06 15:20 36.64738 2.70486 32844 ft 532 kts 91°
2026-05-06 15:20 36.64728 2.75047 32952 ft 521 kts 101°
2026-05-06 15:21 36.64851 2.79597 32884 ft 534 kts 80°
2026-05-06 15:21 36.65571 2.84113 33028 ft 533 kts 80°
2026-05-06 15:21 36.66171 2.88688 32771 ft 535 kts 97°
2026-05-06 15:22 36.66098 2.97694 32834 ft 536 kts 70°
2026-05-06 15:22 36.68169 3.06569 32927 ft 534 kts 88°
2026-05-06 15:23 36.68643 3.15858 32916 ft 540 kts 89°
2026-05-06 15:23 36.68863 3.25169 32897 ft 538 kts 102°
2026-05-06 15:24 36.67853 3.34367 32906 ft 533 kts 105°
2026-05-06 15:24 36.66786 3.43464 32902 ft 526 kts 104°
2026-05-06 15:25 36.65813 3.52492 32917 ft 525 kts 103°
2026-05-06 15:25 36.64850 3.61523 32908 ft 525 kts 104°
2026-05-06 15:26 36.63838 3.70486 32911 ft 525 kts 104°
2026-05-06 15:26 36.62798 3.79517 32918 ft 526 kts 104°
2026-05-06 15:27 36.61757 3.88544 32908 ft 527 kts 104°
2026-05-06 15:27 36.60711 3.97591 32919 ft 530 kts 104°
2026-05-06 15:28 36.59651 4.06707 32910 ft 533 kts 104°
2026-05-06 15:28 36.58588 4.15808 32915 ft 536 kts 104°
2026-05-06 15:29 36.57501 4.25039 32875 ft 539 kts 105°
2026-05-06 15:29 36.56406 4.34272 32897 ft 540 kts 104°
2026-05-06 15:30 36.55314 4.43465 32885 ft 541 kts 105°
2026-05-06 15:30 36.54199 4.52714 32886 ft 540 kts 105°
2026-05-06 15:31 36.53086 4.61919 32895 ft 536 kts 105°
2026-05-06 15:31 36.51972 4.71070 32895 ft 535 kts 105°
2026-05-06 15:32 36.50287 4.84781 32897 ft 534 kts 105°
2026-05-06 15:32 36.49157 4.93914 32894 ft 535 kts 105°
2026-05-06 15:33 36.48212 5.03095 32882 ft 540 kts 96°
2026-05-06 15:33 36.48123 5.12448 32897 ft 542 kts 94°
2026-05-06 15:34 36.48143 5.21747 32899 ft 542 kts 94°
2026-05-06 15:34 36.48083 5.31133 32910 ft 542 kts 95°
2026-05-06 15:35 36.47995 5.40458 32907 ft 540 kts 94°
2026-05-06 15:35 36.47852 5.49838 32894 ft 542 kts 95°
2026-05-06 15:36 36.47703 5.59224 32896 ft 543 kts 95°
2026-05-06 15:36 36.47565 5.68561 32896 ft 543 kts 95°
2026-05-06 15:37 36.47425 5.77935 32893 ft 542 kts 94°
2026-05-06 15:37 36.47274 5.87311 32889 ft 543 kts 94°
2026-05-06 15:38 36.47115 5.96740 32888 ft 545 kts 94°
2026-05-06 15:38 36.46946 6.06095 32884 ft 543 kts 94°
2026-05-06 15:39 36.46832 6.15495 32890 ft 541 kts 94°
2026-05-06 15:39 36.46632 6.24803 32889 ft 543 kts 95°
2026-05-06 15:40 36.46403 6.34191 32893 ft 545 kts 95°
2026-05-06 15:40 36.46190 6.43610 32888 ft 546 kts 95°
2026-05-06 15:41 36.45986 6.53052 32899 ft 545 kts 94°
2026-05-06 15:41 36.45776 6.62487 32934 ft 546 kts 94°
2026-05-06 15:42 36.45557 6.71879 32926 ft 548 kts 94°
2026-05-06 15:42 36.45328 6.81340 32925 ft 548 kts 94°
2026-05-06 15:43 36.45088 6.90812 32900 ft 547 kts 94°
2026-05-06 15:43 36.44844 7.00255 32908 ft 545 kts 94°
2026-05-06 15:44 36.44599 7.09617 32894 ft 544 kts 94°
2026-05-06 15:44 36.44345 7.19008 32907 ft 544 kts 94°
2026-05-06 15:45 36.44079 7.28399 32899 ft 543 kts 94°
2026-05-06 15:45 36.43807 7.37771 32921 ft 542 kts 94°
2026-05-06 15:46 36.43529 7.47132 32913 ft 541 kts 94°
2026-05-06 15:46 36.43244 7.56478 32916 ft 541 kts 94°
2026-05-06 15:47 36.42954 7.65763 32906 ft 541 kts 94°
2026-05-06 15:47 36.42654 7.75118 32917 ft 543 kts 94°
2026-05-06 15:48 36.42346 7.84497 32907 ft 545 kts 94°
2026-05-06 15:48 36.42030 7.93913 32906 ft 545 kts 94°
2026-05-06 15:49 36.41705 8.03337 32903 ft 546 kts 94°
2026-05-06 15:49 36.41374 8.12782 32899 ft 549 kts 94°
2026-05-06 15:50 36.41033 8.22263 32887 ft 549 kts 94°
2026-05-06 15:50 36.40694 8.31667 32882 ft 547 kts 92°
2026-05-06 15:51 36.41424 8.41001 32892 ft 542 kts 73°
2026-05-06 15:51 36.43640 8.49887 32901 ft 537 kts 68°
2026-05-06 15:52 36.45940 8.58725 32892 ft 537 kts 69°
2026-05-06 15:52 36.48147 8.67564 32886 ft 535 kts 70°
2026-05-06 15:53 36.50307 8.76402 32880 ft 533 kts 70°
2026-05-06 15:53 36.52457 8.85210 32884 ft 531 kts 70°
2026-05-06 15:54 36.54605 8.94014 32888 ft 531 kts 70°
2026-05-06 15:54 36.56713 9.02761 32898 ft 531 kts 70°
2026-05-06 15:55 36.58825 9.11580 32889 ft 532 kts 70°
2026-05-06 15:55 36.60971 9.20400 32913 ft 532 kts 69°
2026-05-06 15:56 36.63128 9.29175 32943 ft 532 kts 70°
2026-05-06 15:56 36.65277 9.37993 32904 ft 532 kts 70°
2026-05-06 15:57 36.67382 9.46820 32893 ft 531 kts 70°
2026-05-06 15:57 36.69449 9.55629 32890 ft 528 kts 70°
2026-05-06 15:58 36.71500 9.64389 32898 ft 524 kts 70°
2026-05-06 15:58 36.73538 9.73098 32910 ft 521 kts 70°
2026-05-06 15:59 36.75552 9.81730 32912 ft 519 kts 70°
2026-05-06 15:59 36.77565 9.90390 32913 ft 518 kts 70°
2026-05-06 16:00 36.79561 9.99010 32913 ft 517 kts 70°
2026-05-06 16:00 36.81545 10.07602 32950 ft 517 kts 72°
2026-05-06 16:01 36.83490 10.16149 32899 ft 506 kts 71°
2026-05-06 16:01 36.85248 10.24638 32898 ft 505 kts 83°
2026-05-06 16:02 36.85725 10.33370 32895 ft 504 kts 86°
2026-05-06 16:02 36.86070 10.40621 32907 ft 503 kts 86°
2026-05-06 16:03 36.86582 10.50753 32898 ft 502 kts 86°
2026-05-06 16:03 36.86963 10.58049 32891 ft 502 kts 86°
2026-05-06 16:04 36.87410 10.66669 32888 ft 500 kts 86°
2026-05-06 16:04 36.87852 10.75335 32896 ft 499 kts 86°
2026-05-06 16:05 36.88286 10.83987 32883 ft 498 kts 86°
2026-05-06 16:05 36.88713 10.92634 32879 ft 497 kts 86°
2026-05-06 16:06 36.89134 11.01240 32887 ft 496 kts 86°
2026-05-06 16:06 36.89596 11.05464 32855 ft 495 kts 73°
2026-05-06 16:06 36.90750 11.09492 32896 ft 491 kts 61°
2026-05-06 16:07 36.92455 11.13157 32889 ft 485 kts 49°
2026-05-06 16:07 36.94634 11.16358 32894 ft 481 kts 43°
2026-05-06 16:07 36.99178 11.22525 32871 ft 482 kts 44°
2026-05-06 16:08 37.03694 11.28679 32890 ft 483 kts 45°
2026-05-06 16:08 37.08186 11.34947 32891 ft 483 kts 46°
2026-05-06 16:09 37.12654 11.41223 32877 ft 481 kts 46°
2026-05-06 16:09 37.17109 11.47484 32917 ft 479 kts 47°
2026-05-06 16:10 37.21501 11.53689 32891 ft 476 kts 47°
2026-05-06 16:10 37.25905 11.59893 32887 ft 473 kts 47°
2026-05-06 16:11 37.30242 11.66028 32885 ft 470 kts 47°
2026-05-06 16:11 37.34575 11.72176 32891 ft 467 kts 48°
2026-05-06 16:12 37.38880 11.78297 32895 ft 466 kts 48°
2026-05-06 16:12 37.43171 11.84409 32904 ft 466 kts 48°
2026-05-06 16:13 37.47461 11.90531 32906 ft 467 kts 48°
2026-05-06 16:13 37.51747 11.96658 32913 ft 469 kts 48°
2026-05-06 16:14 37.55733 12.03179 32917 ft 471 kts 58°
2026-05-06 16:14 37.59126 12.10262 32914 ft 473 kts 60°
2026-05-06 16:15 37.62492 12.17408 32918 ft 475 kts 59°
2026-05-06 16:15 37.65912 12.24569 32931 ft 476 kts 59°
2026-05-06 16:16 37.69363 12.31737 32931 ft 477 kts 59°
2026-05-06 16:16 37.72794 12.38855 32940 ft 477 kts 59°
2026-05-06 16:17 37.76240 12.46022 32931 ft 476 kts 59°
2026-05-06 16:17 37.79674 12.53184 32939 ft 476 kts 59°
2026-05-06 16:18 37.83103 12.60352 32937 ft 476 kts 59°
2026-05-06 16:18 37.86527 12.67527 32942 ft 475 kts 59°
2026-05-06 16:19 37.89938 12.74689 32955 ft 475 kts 59°
2026-05-06 16:19 37.93347 12.81856 32942 ft 475 kts 59°
2026-05-06 16:20 37.96718 12.89033 32952 ft 480 kts 59°
2026-05-06 16:20 38.00186 12.96337 32965 ft 487 kts 59°
2026-05-06 16:21 38.03678 13.03709 32942 ft 487 kts 59°
2026-05-06 16:21 38.07159 13.11090 32941 ft 487 kts 59°
2026-05-06 16:22 38.10632 13.18482 32955 ft 487 kts 58°
2026-05-06 16:22 38.14095 13.25871 32982 ft 487 kts 58°
2026-05-06 16:23 38.17555 13.33268 32975 ft 486 kts 59°
2026-05-06 16:23 38.20985 13.40618 32971 ft 486 kts 59°
2026-05-06 16:24 38.24434 13.48025 32954 ft 486 kts 59°
2026-05-06 16:24 38.27768 13.55520 32971 ft 486 kts 60°
2026-05-06 16:25 38.31316 13.62858 32956 ft 486 kts 57°
2026-05-06 16:25 38.34787 13.70205 32947 ft 487 kts 58°
2026-05-06 16:26 38.38210 13.77701 32958 ft 488 kts 59°
2026-05-06 16:26 38.41606 13.85148 32954 ft 489 kts 58°
2026-05-06 16:27 38.45001 13.92674 32945 ft 488 kts 56°
2026-05-06 16:27 38.48478 14.00107 32953 ft 487 kts 58°
2026-05-06 16:28 38.51895 14.07578 32964 ft 486 kts 58°
2026-05-06 16:28 38.55269 14.15008 32957 ft 485 kts 58°
2026-05-06 16:29 38.58661 14.22480 32943 ft 484 kts 57°
2026-05-06 16:29 38.62040 14.29930 32956 ft 482 kts 57°
2026-05-06 16:30 38.64829 14.36088 32957 ft 481 kts 57°
2026-05-06 16:30 38.68737 14.44734 32973 ft 479 kts 57°
2026-05-06 16:31 38.72044 14.52070 32965 ft 478 kts 57°
2026-05-06 16:31 38.75365 14.59457 32970 ft 478 kts 58°
2026-05-06 16:32 38.78688 14.66864 32968 ft 479 kts 58°
2026-05-06 16:32 38.82006 14.74277 32969 ft 480 kts 58°
2026-05-06 16:33 38.85315 14.81687 32972 ft 481 kts 58°
2026-05-06 16:34 38.90300 14.92885 32976 ft 482 kts 58°
2026-05-06 16:34 38.93598 15.00384 32972 ft 481 kts 58°
2026-05-06 16:35 38.96893 15.07771 32968 ft 478 kts 58°
2026-05-06 16:35 39.00177 15.15186 32967 ft 475 kts 58°
2026-05-06 16:36 39.03429 15.22566 32983 ft 472 kts 58°
2026-05-06 16:36 39.06659 15.29914 32971 ft 470 kts 59°
2026-05-06 16:37 39.09854 15.37199 32989 ft 469 kts 59°
2026-05-06 16:37 39.13055 15.44514 32995 ft 468 kts 59°
2026-05-06 16:38 39.16251 15.51831 33006 ft 469 kts 59°
2026-05-06 16:38 39.19448 15.59171 33005 ft 470 kts 59°
2026-05-06 16:39 39.22635 15.66502 33014 ft 471 kts 59°
2026-05-06 16:39 39.25842 15.73899 33013 ft 473 kts 59°
2026-05-06 16:40 39.29064 15.81348 33016 ft 475 kts 59°
2026-05-06 16:40 39.32282 15.88806 33017 ft 475 kts 59°
2026-05-06 16:41 39.35500 15.96282 33020 ft 476 kts 59°
2026-05-06 16:41 39.38710 16.03757 33022 ft 476 kts 59°
2026-05-06 16:42 39.41900 16.11205 33032 ft 477 kts 59°
2026-05-06 16:42 39.45102 16.18696 33028 ft 476 kts 59°
2026-05-06 16:43 39.48305 16.26210 33024 ft 475 kts 59°
2026-05-06 16:43 39.51490 16.33699 33021 ft 475 kts 59°
2026-05-06 16:44 39.54675 16.41204 33020 ft 474 kts 59°
2026-05-06 16:44 39.57847 16.48701 33021 ft 473 kts 59°
2026-05-06 16:45 39.60989 16.56142 33009 ft 472 kts 59°
2026-05-06 16:45 39.64142 16.63628 33009 ft 472 kts 59°
2026-05-06 16:46 39.67285 16.71109 33002 ft 471 kts 58°
2026-05-06 16:46 39.70408 16.78580 33002 ft 470 kts 58°
2026-05-06 16:47 39.73523 16.85982 32989 ft 470 kts 59°
2026-05-06 16:47 39.76637 16.93458 32992 ft 469 kts 59°
2026-05-06 16:48 39.79742 17.00933 32989 ft 468 kts 59°
2026-05-06 16:48 39.82830 17.08400 33002 ft 468 kts 58°
2026-05-06 16:49 39.85889 17.15810 32999 ft 467 kts 58°
2026-05-06 16:49 39.88975 17.23243 32998 ft 467 kts 58°
2026-05-06 16:50 39.91531 17.29435 32995 ft 467 kts 58°
2026-05-06 16:50 39.94602 17.36901 33010 ft 466 kts 58°
2026-05-06 16:51 39.97646 17.44362 33011 ft 466 kts 58°
2026-05-06 16:51 40.00684 17.51824 33030 ft 465 kts 58°
2026-05-06 16:52 40.03744 17.59270 33015 ft 465 kts 58°
2026-05-06 16:52 40.06786 17.66718 33023 ft 465 kts 58°
2026-05-06 16:53 40.09803 17.74143 33022 ft 465 kts 58°
2026-05-06 16:53 40.12831 17.81617 33038 ft 465 kts 58°
2026-05-06 16:54 40.15855 17.89101 33060 ft 465 kts 58°
2026-05-06 16:54 40.18875 17.96591 33051 ft 465 kts 58°
2026-05-06 16:55 40.21896 18.04101 33048 ft 466 kts 58°
2026-05-06 16:55 40.24889 18.11563 33051 ft 466 kts 58°
2026-05-06 16:56 40.27906 18.19101 33049 ft 467 kts 58°
2026-05-06 16:56 40.30923 18.26662 33056 ft 467 kts 58°
2026-05-06 16:57 40.33935 18.34225 33046 ft 468 kts 59°
2026-05-06 16:57 40.36928 18.41762 33042 ft 469 kts 59°
2026-05-06 16:58 40.39884 18.49400 33036 ft 469 kts 59°
2026-05-06 16:58 40.42862 18.57002 33030 ft 467 kts 57°
2026-05-06 16:59 40.45893 18.64486 33052 ft 466 kts 58°
2026-05-06 16:59 40.48872 18.72014 33044 ft 465 kts 58°
2026-05-06 17:00 40.51830 18.79567 33049 ft 464 kts 58°
2026-05-06 17:00 40.54779 18.87116 33051 ft 462 kts 58°
2026-05-06 17:01 40.57696 18.94592 33049 ft 461 kts 58°
2026-05-06 17:01 40.60614 19.02105 33058 ft 460 kts 58°
2026-05-06 17:02 40.63464 19.09657 33053 ft 460 kts 59°
2026-05-06 17:02 40.66292 19.17229 33052 ft 460 kts 59°
2026-05-06 17:03 40.69126 19.24826 33054 ft 461 kts 59°
2026-05-06 17:03 40.71941 19.32371 33053 ft 462 kts 59°
2026-05-06 17:04 40.74774 19.39979 33060 ft 463 kts 59°
2026-05-06 17:04 40.77615 19.47624 33053 ft 465 kts 60°
2026-05-06 17:05 40.80461 19.55306 33056 ft 466 kts 60°
2026-05-06 17:05 40.83309 19.63017 33056 ft 467 kts 60°
2026-05-06 17:06 40.86136 19.70690 33051 ft 468 kts 60°
2026-05-06 17:06 40.88981 19.78431 33058 ft 468 kts 60°
2026-05-06 17:07 40.91824 19.86189 33054 ft 468 kts 60°
2026-05-06 17:07 40.94660 19.93947 33049 ft 468 kts 60°
2026-05-06 17:08 40.97493 20.01722 33057 ft 468 kts 60°
2026-05-06 17:08 41.00298 20.09435 33055 ft 468 kts 60°
2026-05-06 17:09 41.03114 20.17203 33059 ft 467 kts 60°
2026-05-06 17:09 41.05923 20.24971 33054 ft 466 kts 60°